Location: Baggett Branch
(32.6074°N, 97.0167°W)
Time: 10:17:30
(UTC+00:00)

Cosmos 2084 - Pass Details

Date: 10 February 2026
Orbit: 538 x 562 km, 62.8° (Epoch: 8 March)

Event Time Altitude Azimuth Distance (km) Brightness Sun altitude
Exits shadow 12:19:07 - 329° (NNW) 1,991 5.8 -12.4°
Reaches altitude 10° 12:19:34 10° 329° (NNW) 1,809 5.6 -12.3°
Maximum altitude 12:23:38 87° 242° (WSW) 545 3.2 -11.5°
Drops below altitude 10° 12:27:40 10° 152° (SSE) 1,787 6.5 -10.6°
Sets 12:29:51 0° 152° (SSE) 2,673 7.4 -10.2°
